Location: Doughton Park
(36.4224°N, 81.1835°W)
Time: 11:59:56
(UTC-04:00)

ISS - All Passes

Search period start: 29 June 2017 00:00
Search period end: 09 July 2017 00:00
Orbit: 401 x 408 km, 51.6° (Epoch: 30 June)

Date Brightness Start Highest point End Pass type
(mag) Time Alt. Az. Time Alt. Az. Time Alt. Az.
29 Jun - 06:51:08 10° S 06:53:46 23° SE 06:56:27 10° ENE daylight
29 Jun - 08:27:14 10° W 08:30:09 30° NW 08:33:06 10° NNE daylight
29 Jun - 13:21:08 10° NNW 13:23:10 15° NNE 13:25:11 10° ENE daylight
29 Jun - 14:56:42 10° NW 14:59:59 74° SW 15:03:16 10° SE daylight
30 Jun - 06:00:40 10° SSE 06:01:48 11° SE 06:02:57 10° ESE daylight
30 Jun - 07:34:41 10° WSW 07:37:53 57° NW 07:41:09 10° NE daylight
30 Jun - 09:14:01 10° NW 09:14:58 11° NNW 09:15:55 10° N daylight
30 Jun - 12:29:57 10° N 12:30:42 11° NNE 12:31:25 10° NNE daylight
30 Jun - 14:04:34 10° NW 14:07:48 52° NE 14:11:01 10° ESE daylight
30 Jun - 15:42:23 10° W 15:43:56 13° SW 15:45:29 10° SSW daylight
01 Jul - 06:42:30 10° SW 06:45:43 67° SE 06:48:58 10° NE daylight
01 Jul - 08:20:23 10° WNW 08:22:30 16° NNW 08:24:37 10° NNE daylight
01 Jul - 13:12:36 10° NNW 13:15:31 28° NNE 13:18:24 10° E daylight
01 Jul - 14:49:08 10° WNW 14:51:56 26° SW 14:54:43 10° S daylight
02 Jul - 05:50:44 10° SSW 05:53:37 30° SE 05:56:31 10° ENE daylight
02 Jul - 07:27:20 10° W 07:30:05 25° NNW 07:32:52 10° NNE daylight
02 Jul - 12:20:49 10° NNW 12:23:08 17° NNE 12:25:27 10° ENE daylight
02 Jul - 13:56:36 10° WNW 13:59:50 55° SW 14:03:03 10° SE daylight
03 Jul - 04:59:39 10° SSE 05:01:34 15° SE 05:03:31 10° E visible
03 Jul - 06:34:37 10° WSW 06:37:46 44° NW 06:40:55 10° NE daylight
03 Jul - 11:29:19 10° N 11:30:38 12° NNE 11:31:58 10° NE daylight
03 Jul - 13:04:22 10° NW 13:07:39 68° NE 13:10:55 10° SE daylight
04 Jul - 05:42:16 10° SW 05:45:31 88° SE 05:48:48 10° NE visible
04 Jul - 07:20:38 10° WNW 07:22:24 14° NNW 07:24:10 10° N daylight
04 Jul - 12:12:18 10° NNW 12:15:21 34° NE 12:18:23 10° ESE daylight
04 Jul - 13:49:10 10° W 13:51:40 20° SW 13:54:09 10° S daylight
05 Jul - 04:50:17 10° SSW 04:53:21 39° SE 04:56:25 10° ENE visible
05 Jul - 06:27:22 10° W 06:29:55 21° NNW 06:32:30 10° NNE daylight
05 Jul - 11:20:25 10° NNW 11:22:58 20° NNE 11:25:30 10° E daylight
05 Jul - 12:56:26 10° WNW 12:59:34 41° SW 13:02:40 10° SSE daylight
06 Jul - 03:58:51 10° S 04:01:14 19° SE 04:03:38 10° E visible
06 Jul - 05:34:31 10° WSW 05:37:32 35° NW 05:40:34 10° NNE visible
06 Jul - 10:28:44 10° N 10:30:28 14° NNE 10:32:13 10° ENE daylight
06 Jul - 12:04:04 10° NW 12:07:22 88° NE 12:10:39 10° SE daylight
07 Jul - 04:41:58 10° SW 04:45:12 70° NW 04:48:29 10° NE visible
07 Jul - 06:20:50 10° NW 06:22:11 12° NNW 06:23:33 10° N daylight
07 Jul - 11:11:55 10° NW 11:15:04 42° NE 11:18:13 10° ESE daylight
07 Jul - 12:49:14 10° W 12:51:16 16° SW 12:53:19 10° SSW daylight
08 Jul - 03:49:48 10° SSW 03:52:58 52° SE 03:56:10 10° ENE visible
08 Jul - 05:27:20 10° WNW 05:29:39 18° NNW 05:31:58 10° NNE visible
08 Jul - 10:19:55 10° NNW 10:22:40 24° NNE 10:25:25 10° E daylight
08 Jul - 11:56:12 10° WNW 11:59:10 31° SW 12:02:07 10° SSE daylight
